When you browse on this site, cookies collect data to enhance your experience and personalize the content and advertising you see.
Visit our Privacy Policy to learn more. By continuing to use the site, you agree to this use of cookies and data.
  • In Netherlands
  • List of Countries
  • For 7 days
  • Water Temperature
  • Weather Map
  • Weather Widgets
  • user-avatar
    Login

    Hourly Weather Giumri

    Today, 18 September, Wednesday

    Time Temperature Precipitation Wind Pressure Humidity
    00:00 +13°C° 0 mm 1 mps 635 mmHg 72%
    01:00 +13°C° 0 mm 1 mps 635 mmHg 72%
    02:00 +13°C° 0 mm 1 mps 635 mmHg 73%
    03:00 +12°C° 0 mm 1 mps 635 mmHg 74%
    04:00 +12°C° 0 mm 1 mps 635 mmHg 74%
    05:00 +12°C° 0 mm 1 mps 635 mmHg 75%
    06:00 +11°C° 0 mm 1 mps 635 mmHg 75%
    07:00 +13°C° 0 mm 1 mps 636 mmHg 67%
    08:00 +15°C° 0 mm 1 mps 637 mmHg 59%
    09:00 +18°C° 0 mm 1 mps 638 mmHg 51%
    10:00 +19°C° 0 mm 2 mps 638 mmHg 45%
    11:00 +20°C° 0 mm 2 mps 639 mmHg 39%
    12:00 +23°C° 0 mm 2 mps 639 mmHg 33%
    13:00 +24°C° 0 mm 2 mps 639 mmHg 30%
    14:00 +24°C° 0 mm 2 mps 639 mmHg 28%
    15:00 +25°C° 0 mm 2 mps 639 mmHg 26%
    16:00 +24°C° 0 mm 2 mps 638 mmHg 30%
    17:00 +22°C° 0 mm 1 mps 638 mmHg 35%
    18:00 +21°C° 0 mm 1 mps 637 mmHg 39%
    19:00 +19°C° 0 mm 1 mps 637 mmHg 42%
    20:00 +18°C° 0 mm 1 mps 637 mmHg 45%
    21:00 +16°C° 0 mm 1 mps 637 mmHg 48%
    22:00 +16°C° 0 mm 1 mps 637 mmHg 50%
    23:00 +15°C° 0 mm 1 mps 637 mmHg 51%

    Tomorrow, 19 September, Thursday

    Time Temperature Precipitation Wind Pressure Humidity
    00:00 +15°C° 0 mm 1 mps 637 mmHg 53%
    01:00 +15°C° 0 mm 1 mps 637 mmHg 53%
    02:00 +14°C° 0 mm 1 mps 636 mmHg 53%
    03:00 +14°C° 0 mm 1 mps 636 mmHg 53%
    04:00 +14°C° 0 mm 1 mps 636 mmHg 53%
    05:00 +13°C° 0 mm 1 mps 636 mmHg 53%
    06:00 +13°C° 0 mm 1 mps 636 mmHg 54%
    07:00 +15°C° 0 mm 1 mps 636 mmHg 48%
    08:00 +19°C° 0 mm 1 mps 637 mmHg 43%
    09:00 +21°C° 0 mm 1 mps 638 mmHg 37%
    10:00 +22°C° 0 mm 1 mps 638 mmHg 33%
    11:00 +24°C° 0 mm 2 mps 638 mmHg 29%
    12:00 +25°C° 0 mm 2 mps 639 mmHg 25%
    13:00 +26°C° 0 mm 2 mps 639 mmHg 23%
    14:00 +26°C° 0 mm 2 mps 639 mmHg 22%
    15:00 +27°C° 0 mm 2 mps 639 mmHg 20%
    16:00 +25°C° 0 mm 2 mps 638 mmHg 26%
    17:00 +23°C° 0 mm 2 mps 637 mmHg 32%
    18:00 +20°C° 0 mm 2 mps 637 mmHg 38%
    19:00 +19°C° 0 mm 2 mps 637 mmHg 44%
    20:00 +18°C° 0 mm 2 mps 636 mmHg 50%
    21:00 +16°C° 0 mm 2 mps 636 mmHg 56%
    22:00 +16°C° 0 mm 2 mps 636 mmHg 58%
    23:00 +15°C° 0 mm 2 mps 636 mmHg 59%

    Day after tomorrow, 20 September, Friday

    Time Temperature Precipitation Wind Pressure Humidity
    00:00 +15°C° 0 mm 2 mps 636 mmHg 61%
    01:00 +14°C° 0 mm 2 mps 635 mmHg 61%
    02:00 +14°C° 0 mm 2 mps 635 mmHg 61%
    03:00 +14°C° 0 mm 1 mps 635 mmHg 61%
    04:00 +13°C° 0 mm 1 mps 634 mmHg 60%
    05:00 +13°C° 0 mm 1 mps 634 mmHg 60%
    06:00 +12°C° 0 mm 1 mps 634 mmHg 60%
    07:00 +15°C° 0 mm 1 mps 634 mmHg 53%
    08:00 +18°C° 0 mm 1 mps 635 mmHg 47%
    09:00 +21°C° 0 mm 1 mps 636 mmHg 40%
    10:00 +21°C° 0 mm 2 mps 636 mmHg 35%
    11:00 +24°C° 0 mm 3 mps 636 mmHg 29%
    12:00 +26°C° 0 mm 4 mps 636 mmHg 24%
    13:00 +26°C° 0 mm 5 mps 636 mmHg 22%
    14:00 +27°C° 0 mm 6 mps 636 mmHg 19%
    15:00 +28°C° 0 mm 6 mps 635 mmHg 17%
    16:00 +26°C° 0 mm 5 mps 635 mmHg 25%
    17:00 +23°C° 0 mm 4 mps 634 mmHg 32%
    18:00 +20°C° 0 mm 3 mps 633 mmHg 40%
    19:00 +19°C° 0 mm 3 mps 633 mmHg 51%
    20:00 +17°C° 0 mm 4 mps 633 mmHg 62%
    21:00 +15°C° 0 mm 4 mps 633 mmHg 73%
    22:00 +14°C° 0 mm 3 mps 633 mmHg 75%
    23:00 +14°C° 0 mm 3 mps 632 mmHg 77%

    21 September, Saturday

    Time Temperature Precipitation Wind Pressure Humidity
    00:00 +13°C° 0 mm 3 mps 632 mmHg 80%
    01:00 +13°C° 0 mm 2 mps 632 mmHg 81%
    02:00 +13°C° 0 mm 2 mps 632 mmHg 81%
    03:00 +13°C° 0 mm 2 mps 631 mmHg 82%
    04:00 +12°C° 0 mm 2 mps 631 mmHg 82%
    05:00 +12°C° 0 mm 1 mps 631 mmHg 83%
    06:00 +11°C° 0 mm 1 mps 631 mmHg 83%
    07:00 +13°C° 0 mm 1 mps 631 mmHg 74%
    08:00 +14°C° 0 mm 1 mps 632 mmHg 65%
    09:00 +16°C° 0 mm 2 mps 632 mmHg 57%
    10:00 +18°C° 0 mm 2 mps 633 mmHg 51%
    11:00 +19°C° 0 mm 2 mps 633 mmHg 44%
    12:00 +20°C° 0 mm 3 mps 633 mmHg 38%
    13:00 +21°C° 0 mm 4 mps 633 mmHg 38%
    14:00 +21°C° 0 mm 5 mps 633 mmHg 38%
    15:00 +21°C° 0 mm 7 mps 632 mmHg 37%
    16:00 +17°C° 0 mm 6 mps 632 mmHg 46%
    17:00 +15°C° 0 mm 5 mps 632 mmHg 55%
    18:00 +13°C° 0 mm 5 mps 631 mmHg 63%
    19:00 +12°C° 0 mm 4 mps 632 mmHg 66%
    20:00 +10°C° 0 mm 4 mps 632 mmHg 68%
    21:00 +9°C° 0 mm 3 mps 632 mmHg 70%
    22:00 +8°C° 0 mm 3 mps 632 mmHg 70%
    23:00 +7°C° 0 mm 3 mps 632 mmHg 70%

    22 September, Sunday

    Time Temperature Precipitation Wind Pressure Humidity
    00:00 +7°C° 0 mm 3 mps 633 mmHg 70%
    01:00 +6°C° 0 mm 2 mps 633 mmHg 70%
    02:00 +5°C° 0 mm 2 mps 633 mmHg 71%
    03:00 +5°C° 0 mm 2 mps 633 mmHg 71%
    04:00 +5°C° 0 mm 1 mps 634 mmHg 71%
    05:00 +5°C° 0 mm 1 mps 634 mmHg 71%
    06:00 +4°C° 0 mm 1 mps 634 mmHg 71%
    07:00 +5°C° 0 mm 2 mps 635 mmHg 62%
    08:00 +7°C° 0 mm 2 mps 636 mmHg 54%
    09:00 +8°C° 0 mm 2 mps 637 mmHg 45%
    10:00 +10°C° 0 mm 2 mps 637 mmHg 41%
    11:00 +12°C° 0 mm 2 mps 638 mmHg 36%
    12:00 +13°C° 0 mm 2 mps 638 mmHg 32%
    13:00 +14°C° 0 mm 2 mps 638 mmHg 32%
    14:00 +15°C° 0 mm 2 mps 638 mmHg 31%
    15:00 +15°C° 0 mm 2 mps 638 mmHg 31%
    16:00 +13°C° 0 mm 3 mps 638 mmHg 37%
    17:00 +11°C° 0 mm 3 mps 637 mmHg 44%
    18:00 +10°C° 0 mm 3 mps 637 mmHg 50%
    19:00 +9°C° 0 mm 3 mps 637 mmHg 54%
    20:00 +7°C° 0 mm 3 mps 637 mmHg 59%
    21:00 +6°C° 0 mm 2 mps 638 mmHg 63%
    22:00 +6°C° 0 mm 2 mps 637 mmHg 64%
    23:00 +5°C° 0 mm 2 mps 637 mmHg 65%

    23 September, Monday

    Time Temperature Precipitation Wind Pressure Humidity
    00:00 +5°C° 0 mm 2 mps 637 mmHg 67%
    01:00 +4°C° 0 mm 2 mps 637 mmHg 67%
    02:00 +4°C° 0 mm 2 mps 637 mmHg 68%
    03:00 +4°C° 0 mm 2 mps 636 mmHg 68%
    04:00 +4°C° 0 mm 2 mps 636 mmHg 68%
    05:00 +3°C° 0 mm 2 mps 636 mmHg 67%
    06:00 +3°C° 0 mm 2 mps 636 mmHg 67%
    07:00 +6°C° 0 mm 2 mps 637 mmHg 58%
    08:00 +9°C° 0 mm 1 mps 637 mmHg 50%
    09:00 +11°C° 0 mm 1 mps 638 mmHg 42%
    10:00 +13°C° 0 mm 2 mps 638 mmHg 39%
    11:00 +15°C° 0 mm 2 mps 638 mmHg 36%
    12:00 +17°C° 0 mm 2 mps 638 mmHg 33%
    13:00 +18°C° 0 mm 2 mps 637 mmHg 33%
    14:00 +18°C° 0 mm 3 mps 637 mmHg 33%
    15:00 +19°C° 0 mm 3 mps 637 mmHg 33%
    16:00 +17°C° 0 mm 2 mps 636 mmHg 40%
    17:00 +15°C° 0 mm 2 mps 635 mmHg 47%
    18:00 +13°C° 0 mm 2 mps 635 mmHg 54%
    19:00 +12°C° 0 mm 2 mps 635 mmHg 59%
    20:00 +10°C° 0 mm 2 mps 635 mmHg 64%
    21:00 +9°C° 0 mm 2 mps 634 mmHg 69%
    22:00 +8°C° 0 mm 2 mps 634 mmHg 70%
    23:00 +8°C° 0 mm 2 mps 634 mmHg 71%
    Show more